EW9770 Weather Reports


time (UTC)temp
C
wind
direction
speed
KPH
gust
KPH
rain 1hr
cm
rain 24hr
cm
rain mn
cm
humidity
%
barometer
mb
20260505023105 18 139 0.0 0.0 0.00 0.00 0.00 76 1008.8
20260505021555 19 140 0.0 0.0 0.00 0.00 0.00 74 1008.7
20260505020054 20 139 0.0 0.0 0.00 0.00 0.00 73 1008.7
20260505014553 20 140 0.0 0.0 0.00 0.00 0.00 72 1008.6
20260505013052 21 138 0.0 0.0 0.00 0.00 0.00 69 1008.3
20260505011558 21 360 0.0 1.6 0.00 0.00 0.00 67 1008.2
20260505010054 22 360 0.0 1.6 0.00 0.00 0.00 65 1008.1
20260505004554 22 360 0.0 0.0 0.00 0.00 0.00 63 1008.1
20260505003050 23 360 0.0 3.2 0.00 0.00 0.00 61 1008.2
20260505001549 23 132 0.0 4.8 0.00 0.00 0.00 59 1008.2
20260505000049 23 336 0.0 4.8 0.00 0.00 0.00 58 1008.2
20260504234611 24 132 0.0 12.9 0.00 0.00 0.00 56 1008.3
20260504233049 25 129 1.6 6.4 0.00 0.00 0.00 55 1008.4
20260504231552 25 92 0.0 6.4 0.00 0.00 0.00 55 1008.7
20260504230041 25 128 0.0 8.0 0.00 0.00 0.00 55 1008.9
20260504224540 25 140 4.8 12.9 0.00 0.00 0.00 52 1009.0
20260504223040 25 158 1.6 11.3 0.00 0.00 0.00 54 1009.1
20260504221539 25 90 3.2 11.3 0.00 0.00 0.00 53 1009.2
20260504220037 26 209 1.6 12.9 0.00 0.00 0.00 52 1009.3
20260504214539 26 112 1.6 12.9 0.00 0.00 0.00 51 1009.4
20260504213034 26 32 3.2 14.5 0.00 0.00 0.00 51 1009.7
20260504211532 26 265 1.6 11.3 0.00 0.00 0.00 51 1009.7
20260504210031 26 69 3.2 12.9 0.00 0.00 0.00 50 1009.7
20260504204604 26 26 4.8 20.9 0.00 0.00 0.00 49 1010.1
20260504203030 26 175 3.2 12.9 0.00 0.00 0.00 52 1010.3
20260504201524 25 82 3.2 17.7 0.00 0.00 0.00 50 1010.7
20260504200029 26 223 3.2 16.1 0.00 0.00 0.00 50 1010.9
20260504194522 25 253 1.6 16.1 0.00 0.00 0.00 51 1011.4
20260504193024 26 154 3.2 14.5 0.00 0.00 0.00 52 1011.6
20260504191518 25 13 4.8 19.3 0.00 0.00 0.00 52 1011.7
20260504190017 25 125 0.0 17.7 0.00 0.00 0.00 52 1011.8
20260504184514 25 348 3.2 14.5 0.00 0.00 0.00 49 1012.1
20260504183014 25 273 4.8 12.9 0.00 0.00 0.00 49 1012.2
20260504181513 25 159 3.2 11.3 0.00 0.00 0.00 51 1012.3
20260504180010 25 247 1.6 16.1 0.00 0.00 0.00 54 1012.6
20260504174508 25 223 1.6 9.7 0.00 0.00 0.00 54 1012.9
20260504173006 25 234 1.6 19.3 0.00 0.00 0.00 51 1013.0
20260504171516 25 130 4.8 22.5 0.00 0.00 0.00 52 1013.2
20260504081550 13 109 0.0 0.0 0.00 0.00 0.00 85 1014.0
20260504044527 15 113 0.0 0.0 0.00 0.00 0.00 82 1015.0
20260504043026 16 113 0.0 0.0 0.00 0.00 0.00 81 1015.0
20260504041529 16 113 0.0 0.0 0.00 0.00 0.00 80 1015.2
20260504040025 16 113 0.0 0.0 0.00 0.00 0.00 80 1015.3
20260504034523 16 113 0.0 0.0 0.00 0.00 0.00 79 1015.5
20260504033025 17 109 0.0 0.0 0.00 0.00 0.00 78 1015.5
20260504031523 17 107 0.0 0.0 0.00 0.00 0.00 77 1015.5
20260504030035 17 106 0.0 0.0 0.00 0.00 0.00 76 1015.6
20260504024523 17 106 0.0 0.0 0.00 0.00 0.00 76 1015.4